| time (UTC) | temp C | wind direction | speed KPH | gust KPH | rain 1hr cm | rain 24hr cm | rain mn cm | humidity % | barometer mb |
| 20260902191505 | 36 | 181 | 8.0 | 19.3 | 0.00 | 0.00 | 0.00 | 48 | 1013.5 |
| 20260902191403 | 36 | 148 | 8.0 | 16.1 | 0.00 | 0.00 | 0.00 | 48 | 1013.9 |
| 20260902190503 | 36 | 158 | 8.0 | 19.3 | 0.00 | 0.00 | 0.00 | 51 | 1013.9 |
| 20260902190104 | 36 | 128 | 8.0 | 19.3 | 0.00 | 0.00 | 0.00 | 51 | 1013.5 |
| 20260902185603 | 36 | 151 | 8.0 | 16.1 | 0.00 | 0.00 | 0.00 | 52 | 1013.9 |
| 20260902184504 | 35 | 119 | 4.8 | 22.5 | 0.00 | 0.00 | 0.00 | 52 | 1013.7 |
| 20260902183803 | 35 | 141 | 6.4 | 16.1 | 0.00 | 0.00 | 0.00 | 53 | 1014.2 |
| 20260902183106 | 35 | 103 | 6.4 | 19.3 | 0.00 | 0.00 | 0.00 | 52 | 1014.1 |
| 20260902182903 | 35 | 140 | 8.0 | 24.1 | 0.00 | 0.00 | 0.00 | 52 | 1014.5 |
| 20260902182004 | 35 | 149 | 9.7 | 24.1 | 0.00 | 0.00 | 0.00 | 53 | 1014.7 |
| 20260902181506 | 35 | 145 | 8.0 | 20.9 | 0.00 | 0.00 | 0.00 | 54 | 1014.4 |
| 20260902180203 | 35 | 145 | 8.0 | 20.9 | 0.00 | 0.00 | 0.00 | 53 | 1015.0 |
| 20260902180008 | 35 | 158 | 9.7 | 17.7 | 0.00 | 0.00 | 0.00 | 53 | 1014.7 |
| 20260902174505 | 34 | 201 | 9.7 | 19.3 | 0.00 | 0.00 | 0.00 | 55 | 1015.0 |
| 20260902173503 | 33 | 146 | 11.3 | 24.1 | 0.00 | 0.00 | 0.00 | 56 | 1015.4 |
| 20260902173104 | 33 | 105 | 8.0 | 24.1 | 0.00 | 0.00 | 0.00 | 56 | 1015.1 |
| 20260902172603 | 33 | 138 | 9.7 | 16.1 | 0.00 | 0.00 | 0.00 | 56 | 1015.5 |
| 20260902171703 | 33 | 127 | 11.3 | 20.9 | 0.00 | 0.00 | 0.00 | 56 | 1015.8 |
| 20260902171505 | 33 | 80 | 11.3 | 20.9 | 0.00 | 0.00 | 0.00 | 56 | 1015.4 |
| 20260902170803 | 33 | 153 | 9.7 | 19.3 | 0.00 | 0.00 | 0.00 | 54 | 1015.8 |
| 20260902170004 | 33 | 126 | 9.7 | 19.3 | 0.00 | 0.00 | 0.00 | 58 | 1015.5 |
| 20260902165903 | 33 | 153 | 11.3 | 19.3 | 0.00 | 0.00 | 0.00 | 58 | 1015.9 |
| 20260902165003 | 33 | 158 | 11.3 | 22.5 | 0.00 | 0.00 | 0.00 | 58 | 1016.0 |
| 20260902164608 | 32 | 163 | 9.7 | 22.5 | 0.00 | 0.00 | 0.00 | 59 | 1015.7 |
| 20260902164106 | 32 | 146 | 11.3 | 20.9 | 0.00 | 0.00 | 0.00 | 60 | 1016.1 |
| 20260902163203 | 33 | 157 | 12.9 | 20.9 | 0.00 | 0.00 | 0.00 | 60 | 1016.1 |
| 20260902163104 | 32 | 186 | 12.9 | 20.9 | 0.00 | 0.00 | 0.00 | 59 | 1015.8 |
| 20260902162306 | 33 | 160 | 9.7 | 16.1 | 0.00 | 0.00 | 0.00 | 60 | 1016.1 |
| 20260902161504 | 32 | 121 | 9.7 | 20.9 | 0.00 | 0.00 | 0.00 | 60 | 1015.8 |
| 20260902161403 | 32 | 157 | 9.7 | 20.9 | 0.00 | 0.00 | 0.00 | 61 | 1016.1 |
| 20260902160503 | 32 | 139 | 9.7 | 17.7 | 0.00 | 0.00 | 0.00 | 62 | 1016.2 |
| 20260902160010 | 32 | 174 | 9.7 | 14.5 | 0.00 | 0.00 | 0.00 | 62 | 1015.7 |
| 20260902154703 | 32 | 122 | 8.0 | 16.1 | 0.00 | 0.00 | 0.00 | 63 | 1016.1 |
| 20260902154607 | 31 | 148 | 4.8 | 16.1 | 0.00 | 0.00 | 0.00 | 62 | 1015.8 |
| 20260902153803 | 32 | 136 | 6.4 | 14.5 | 0.00 | 0.00 | 0.00 | 63 | 1016.0 |
| 20260902153105 | 31 | 144 | 6.4 | 14.5 | 0.00 | 0.00 | 0.00 | 66 | 1015.7 |
| 20260902152903 | 31 | 135 | 6.4 | 14.5 | 0.00 | 0.00 | 0.00 | 66 | 1016.0 |
| 20260902152003 | 31 | 107 | 6.4 | 12.9 | 0.00 | 0.00 | 0.00 | 68 | 1016.0 |
| 20260902151506 | 30 | 113 | 4.8 | 12.9 | 0.00 | 0.00 | 0.00 | 70 | 1015.6 |
| 20260902151103 | 30 | 95 | 6.4 | 14.5 | 0.00 | 0.00 | 0.00 | 70 | 1015.9 |
| 20260902150203 | 30 | 136 | 8.0 | 16.1 | 0.00 | 0.00 | 0.00 | 70 | 1015.8 |
| 20260902150106 | 30 | 57 | 4.8 | 16.1 | 0.00 | 0.00 | 0.00 | 70 | 1015.4 |
| 20260902145305 | 30 | 129 | 6.4 | 11.3 | 0.00 | 0.00 | 0.00 | 73 | 1015.8 |
| 20260902144505 | 30 | 64 | 4.8 | 14.5 | 0.00 | 0.00 | 0.00 | 73 | 1015.4 |
| 20260902144403 | 30 | 91 | 4.8 | 12.9 | 0.00 | 0.00 | 0.00 | 73 | 1015.8 |
| 20260902143503 | 30 | 164 | 4.8 | 9.7 | 0.00 | 0.00 | 0.00 | 75 | 1015.7 |
| 20260902143009 | 29 | 155 | 4.8 | 11.3 | 0.00 | 0.00 | 0.00 | 75 | 1015.4 |
| 20260902141703 | 29 | 156 | 6.4 | 14.5 | 0.00 | 0.00 | 0.00 | 78 | 1015.9 |
| 20260902141505 | 28 | 160 | 4.8 | 14.5 | 0.00 | 0.00 | 0.00 | 78 | 1015.5 |
| 20260902140803 | 28 | 134 | 4.8 | 11.3 | 0.00 | 0.00 | 0.00 | 78 | 1015.9 |
| 20260902140009 | 28 | 165 | 4.8 | 11.3 | 0.00 | 0.00 | 0.00 | 78 | 1015.7 |
| 20260902135903 | 28 | 159 | 4.8 | 11.3 | 0.00 | 0.00 | 0.00 | 79 | 1016.1 |
| 20260902135003 | 27 | 124 | 3.2 | 9.7 | 0.00 | 0.00 | 0.00 | 80 | 1015.9 |
| 20260902134603 | 27 | 157 | 3.2 | 9.7 | 0.00 | 0.00 | 0.00 | 81 | 1015.5 |
| 20260902134103 | 27 | 108 | 4.8 | 11.3 | 0.00 | 0.00 | 0.00 | 82 | 1015.9 |
| 20260902133203 | 26 | 147 | 1.6 | 4.8 | 0.00 | 0.00 | 0.00 | 84 | 1015.9 |
| 20260902133109 | 26 | 146 | 0.0 | 4.8 | 0.00 | 0.00 | 0.00 | 84 | 1015.5 |
| 20260902132306 | 26 | 318 | 0.0 | 3.2 | 0.00 | 0.00 | 0.00 | 86 | 1015.9 |
| 20260902131503 | 25 | 319 | 0.0 | 4.8 | 0.00 | 0.00 | 0.00 | 87 | 1015.6 |
| 20260902131403 | 25 | 337 | 0.0 | 4.8 | 0.00 | 0.00 | 0.00 | 87 | 1016.0 |
| 20260902130503 | 24 | 25 | 1.6 | 3.2 | 0.00 | 0.00 | 0.00 | 88 | 1016.0 |
| 20260902130005 | 23 | 10 | 0.0 | 3.2 | 0.00 | 0.00 | 0.00 | 89 | 1015.6 |
| 20260902124703 | 23 | 16 | 0.0 | 1.6 | 0.00 | 0.00 | 0.00 | 90 | 1016.0 |
| 20260902124604 | 23 | 15 | 0.0 | 1.6 | 0.00 | 0.00 | 0.00 | 90 | 1015.6 |
| 20260902123017 | 23 | 36 | 0.0 | 4.8 | 0.00 | 0.00 | 0.00 | 89 | 1015.5 |
| 20260902122903 | 23 | 51 | 1.6 | 4.8 | 0.00 | 0.00 | 0.00 | 89 | 1015.8 |
| 20260902122003 | 23 | 56 | 0.0 | 3.2 | 0.00 | 0.00 | 0.00 | 89 | 1015.7 |
| 20260902121508 | 23 | 55 | 0.0 | 3.2 | 0.00 | 0.00 | 0.00 | 89 | 1015.2 |
| 20260902121103 | 23 | 42 | 0.0 | 3.2 | 0.00 | 0.00 | 0.00 | 89 | 1015.5 |
| 20260902120203 | 23 | 67 | 1.6 | 4.8 | 0.00 | 0.00 | 0.00 | 89 | 1015.5 |
| 20260902120103 | 23 | 32 | 0.0 | 4.8 | 0.00 | 0.00 | 0.00 | 89 | 1015.2 |
| 20260902115307 | 23 | 47 | 1.6 | 4.8 | 0.00 | 0.00 | 0.00 | 89 | 1015.5 |
| 20260902114605 | 23 | 32 | 0.0 | 3.2 | 0.00 | 0.00 | 0.00 | 88 | 1015.1 |
| 20260902113503 | 23 | 39 | 1.6 | 4.8 | 0.00 | 0.00 | 0.00 | 88 | 1015.3 |
| 20260902113005 | 23 | 26 | 1.6 | 4.8 | 0.00 | 0.00 | 0.00 | 88 | 1015.0 |
| 20260902112603 | 23 | 104 | 1.6 | 4.8 | 0.00 | 0.00 | 0.00 | 88 | 1015.3 |
| 20260902111703 | 23 | 0 | 0.0 | 0.0 | 0.00 | 0.00 | 0.00 | 88 | 1015.3 |
| 20260902111514 | 23 | 156 | 0.0 | 0.0 | 0.00 | 0.00 | 0.00 | 88 | 1014.9 |
| 20260902110019 | 23 | 156 | 0.0 | 0.0 | 0.00 | 0.00 | 0.00 | 87 | 1015.0 |
| 20260902105903 | 23 | 156 | 0.0 | 1.6 | 0.00 | 0.00 | 0.00 | 87 | 1015.3 |
| 20260902105003 | 23 | 155 | 1.6 | 3.2 | 0.00 | 0.00 | 0.00 | 87 | 1015.3 |
| 20260902104612 | 23 | 156 | 0.0 | 3.2 | 0.00 | 0.00 | 0.00 | 86 | 1014.9 |
| 20260902104103 | 24 | 156 | 0.0 | 1.6 | 0.00 | 0.00 | 0.00 | 85 | 1015.2 |
| 20260902103203 | 24 | 155 | 1.6 | 3.2 | 0.00 | 0.00 | 0.00 | 86 | 1015.1 |
| 20260902103007 | 23 | 156 | 0.0 | 3.2 | 0.00 | 0.00 | 0.00 | 86 | 1014.8 |
| 20260902102307 | 24 | 155 | 1.6 | 3.2 | 0.00 | 0.00 | 0.00 | 85 | 1015.2 |
| 20260902101605 | 24 | 156 | 1.6 | 3.2 | 0.00 | 0.00 | 0.00 | 85 | 1014.7 |
| 20260902101403 | 24 | 155 | 1.6 | 3.2 | 0.00 | 0.00 | 0.00 | 85 | 1015.1 |
| 20260902100104 | 24 | 156 | 0.0 | 0.0 | 0.00 | 0.00 | 0.00 | 85 | 1014.7 |
| 20260902094504 | 24 | 156 | 0.0 | 0.0 | 0.00 | 0.00 | 0.00 | 84 | 1014.5 |
| 20260902093803 | 24 | 156 | 0.0 | 1.6 | 0.00 | 0.00 | 0.00 | 84 | 1014.8 |
| 20260902093003 | 24 | 156 | 0.0 | 3.2 | 0.00 | 0.00 | 0.00 | 84 | 1014.5 |
| 20260902092903 | 24 | 156 | 0.0 | 3.2 | 0.00 | 0.00 | 0.00 | 84 | 1014.8 |
| 20260902092003 | 24 | 155 | 0.0 | 3.2 | 0.00 | 0.00 | 0.00 | 83 | 1014.8 |
| 20260902091504 | 24 | 156 | 0.0 | 3.2 | 0.00 | 0.00 | 0.00 | 83 | 1014.5 |
| 20260902091103 | 24 | 155 | 1.6 | 3.2 | 0.00 | 0.00 | 0.00 | 83 | 1014.6 |
| 20260902090203 | 25 | 0 | 0.0 | 0.0 | 0.00 | 0.00 | 0.00 | 82 | 1014.7 |
| 20260902090006 | 24 | 156 | 0.0 | 0.0 | 0.00 | 0.00 | 0.00 | 82 | 1014.4 |
| 20260902085306 | 25 | 0 | 0.0 | 0.0 | 0.00 | 0.00 | 0.00 | 81 | 1014.7 |
| 20260902084505 | 24 | 156 | 0.0 | 0.0 | 0.00 | 0.00 | 0.00 | 81 | 1014.5 |
| 20260902084403 | 25 | 0 | 0.0 | 0.0 | 0.00 | 0.00 | 0.00 | 81 | 1014.8 |
| 20260902083503 | 25 | 0 | 0.0 | 0.0 | 0.00 | 0.00 | 0.00 | 81 | 1014.8 |
| 20260902083111 | 25 | 156 | 0.0 | 0.0 | 0.00 | 0.00 | 0.00 | 81 | 1014.5 |
| 20260902082603 | 25 | 0 | 0.0 | 0.0 | 0.00 | 0.00 | 0.00 | 80 | 1014.8 |
| 20260902081703 | 25 | 0 | 0.0 | 0.0 | 0.00 | 0.00 | 0.00 | 80 | 1014.8 |
| 20260902081508 | 25 | 156 | 0.0 | 0.0 | 0.00 | 0.00 | 0.00 | 79 | 1014.5 |
| 20260902080803 | 25 | 0 | 0.0 | 0.0 | 0.00 | 0.00 | 0.00 | 79 | 1014.8 |
| 20260902080008 | 25 | 156 | 0.0 | 0.0 | 0.00 | 0.00 | 0.00 | 78 | 1014.4 |
| 20260902074604 | 25 | 156 | 0.0 | 0.0 | 0.00 | 0.00 | 0.00 | 78 | 1014.5 |
| 20260902074103 | 26 | 0 | 0.0 | 0.0 | 0.00 | 0.00 | 0.00 | 77 | 1014.8 |
| 20260902073203 | 26 | 155 | 0.0 | 1.6 | 0.00 | 0.00 | 0.00 | 76 | 1014.9 |
| 20260902073105 | 26 | 156 | 0.0 | 1.6 | 0.00 | 0.00 | 0.00 | 76 | 1014.6 |
| 20260902071503 | 26 | 156 | 0.0 | 1.6 | 0.00 | 0.00 | 0.00 | 74 | 1014.7 |
| 20260902071403 | 26 | 156 | 0.0 | 1.6 | 0.00 | 0.00 | 0.00 | 74 | 1015.0 |
| 20260902070503 | 26 | 0 | 0.0 | 0.0 | 0.00 | 0.00 | 0.00 | 73 | 1015.1 |
| 20260902070108 | 26 | 156 | 0.0 | 0.0 | 0.00 | 0.00 | 0.00 | 73 | 1014.7 |
| 20260902065603 | 27 | 0 | 0.0 | 0.0 | 0.00 | 0.00 | 0.00 | 72 | 1015.2 |
| 20260902064703 | 27 | 0 | 0.0 | 0.0 | 0.00 | 0.00 | 0.00 | 71 | 1015.2 |
| 20260902064502 | 27 | 156 | 0.0 | 1.6 | 0.00 | 0.00 | 0.00 | 71 | 1014.9 |
| 20260902063803 | 27 | 156 | 0.0 | 1.6 | 0.00 | 0.00 | 0.00 | 71 | 1015.2 |
| 20260902063109 | 27 | 156 | 0.0 | 3.2 | 0.00 | 0.00 | 0.00 | 70 | 1014.7 |
| 20260902062903 | 27 | 155 | 1.6 | 3.2 | 0.00 | 0.00 | 0.00 | 70 | 1015.1 |
| 20260902062003 | 27 | 155 | 1.6 | 4.8 | 0.00 | 0.00 | 0.00 | 70 | 1015.1 |
| 20260902061614 | 27 | 156 | 0.0 | 4.8 | 0.00 | 0.00 | 0.00 | 70 | 1014.7 |
| 20260902061103 | 27 | 155 | 3.2 | 6.4 | 0.00 | 0.00 | 0.00 | 69 | 1015.1 |
| 20260902060203 | 27 | 154 | 3.2 | 4.8 | 0.00 | 0.00 | 0.00 | 69 | 1015.1 |
| 20260902060005 | 27 | 154 | 1.6 | 6.4 | 0.00 | 0.00 | 0.00 | 68 | 1014.7 |
| 20260902055306 | 28 | 154 | 4.8 | 6.4 | 0.00 | 0.00 | 0.00 | 68 | 1014.9 |
| 20260902054616 | 28 | 144 | 3.2 | 8.0 | 0.00 | 0.00 | 0.00 | 67 | 1014.5 |
| 20260902054403 | 28 | 148 | 4.8 | 12.9 | 0.00 | 0.00 | 0.00 | 67 | 1014.8 |
| 20260902053503 | 28 | 152 | 3.2 | 9.7 | 0.00 | 0.00 | 0.00 | 66 | 1014.8 |
| 20260902053016 | 28 | 153 | 1.6 | 8.0 | 0.00 | 0.00 | 0.00 | 66 | 1014.5 |
| 20260902051703 | 28 | 143 | 4.8 | 8.0 | 0.00 | 0.00 | 0.00 | 65 | 1014.6 |
| 20260902051604 | 28 | 197 | 4.8 | 8.0 | 0.00 | 0.00 | 0.00 | 65 | 1014.3 |
| 20260902050803 | 28 | 146 | 6.4 | 11.3 | 0.00 | 0.00 | 0.00 | 64 | 1014.6 |
| 20260902050006 | 28 | 125 | 6.4 | 11.3 | 0.00 | 0.00 | 0.00 | 64 | 1014.2 |
| 20260902045903 | 28 | 145 | 6.4 | 9.7 | 0.00 | 0.00 | 0.00 | 64 | 1014.4 |
| 20260902045003 | 28 | 142 | 4.8 | 9.7 | 0.00 | 0.00 | 0.00 | 63 | 1014.5 |
| 20260902044509 | 28 | 129 | 3.2 | 11.3 | 0.00 | 0.00 | 0.00 | 63 | 1014.2 |
| 20260902043203 | 29 | 122 | 1.6 | 6.4 | 0.00 | 0.00 | 0.00 | 62 | 1014.4 |
| 20260902043005 | 29 | 135 | 3.2 | 6.4 | 0.00 | 0.00 | 0.00 | 62 | 1014.0 |
| 20260902042308 | 29 | 133 | 3.2 | 4.8 | 0.00 | 0.00 | 0.00 | 61 | 1014.3 |
| 20260902041508 | 29 | 150 | 3.2 | 8.0 | 0.00 | 0.00 | 0.00 | 61 | 1014.1 |
| 20260902041403 | 30 | 124 | 3.2 | 8.0 | 0.00 | 0.00 | 0.00 | 61 | 1014.4 |
| 20260902040503 | 30 | 123 | 3.2 | 8.0 | 0.00 | 0.00 | 0.00 | 61 | 1014.4 |
| 20260902040103 | 29 | 88 | 1.6 | 8.0 | 0.00 | 0.00 | 0.00 | 60 | 1014.1 |
| 20260902035603 | 30 | 138 | 1.6 | 8.0 | 0.00 | 0.00 | 0.00 | 60 | 1014.4 |
| 20260902034703 | 30 | 133 | 3.2 | 6.4 | 0.00 | 0.00 | 0.00 | 60 | 1014.3 |
| 20260902034603 | 30 | 111 | 1.6 | 6.4 | 0.00 | 0.00 | 0.00 | 60 | 1014.0 |
| 20260902033803 | 30 | 133 | 4.8 | 6.4 | 0.00 | 0.00 | 0.00 | 60 | 1014.4 |
| 20260902033008 | 30 | 139 | 3.2 | 8.0 | 0.00 | 0.00 | 0.00 | 60 | 1014.1 |
| 20260902032903 | 30 | 146 | 4.8 | 8.0 | 0.00 | 0.00 | 0.00 | 60 | 1014.4 |
| 20260902032003 | 30 | 144 | 4.8 | 9.7 | 0.00 | 0.00 | 0.00 | 60 | 1014.3 |
| 20260902031605 | 30 | 124 | 3.2 | 9.7 | 0.00 | 0.00 | 0.00 | 60 | 1013.9 |
| 20260902031103 | 30 | 144 | 4.8 | 11.3 | 0.00 | 0.00 | 0.00 | 61 | 1014.1 |
| 20260902030005 | 30 | 165 | 4.8 | 9.7 | 0.00 | 0.00 | 0.00 | 61 | 1013.6 |
| 20260902025306 | 30 | 145 | 3.2 | 9.7 | 0.00 | 0.00 | 0.00 | 61 | 1013.9 |
| 20260902024504 | 30 | 143 | 1.6 | 8.0 | 0.00 | 0.00 | 0.00 | 61 | 1013.5 |
| 20260902023503 | 31 | 139 | 3.2 | 9.7 | 0.00 | 0.00 | 0.00 | 61 | 1013.7 |
| 20260902023009 | 30 | 137 | 1.6 | 11.3 | 0.00 | 0.00 | 0.00 | 62 | 1013.3 |
| 20260902022603 | 31 | 140 | 4.8 | 9.7 | 0.00 | 0.00 | 0.00 | 62 | 1013.6 |
| 20260902021703 | 31 | 143 | 4.8 | 9.7 | 0.00 | 0.00 | 0.00 | 63 | 1013.4 |
| 20260902021514 | 30 | 128 | 3.2 | 9.7 | 0.00 | 0.00 | 0.00 | 63 | 1013.0 |
| 20260902020006 | 31 | 142 | 1.6 | 8.0 | 0.00 | 0.00 | 0.00 | 63 | 1012.8 |
| 20260902015903 | 31 | 133 | 3.2 | 8.0 | 0.00 | 0.00 | 0.00 | 63 | 1013.1 |
| 20260902015003 | 31 | 133 | 1.6 | 4.8 | 0.00 | 0.00 | 0.00 | 63 | 1012.9 |
| 20260902014509 | 31 | 133 | 0.0 | 3.2 | 0.00 | 0.00 | 0.00 | 62 | 1012.5 |
| 20260902014103 | 31 | 133 | 0.0 | 3.2 | 0.00 | 0.00 | 0.00 | 62 | 1012.7 |
| 20260902013203 | 32 | 133 | 0.0 | 3.2 | 0.00 | 0.00 | 0.00 | 61 | 1012.6 |
| 20260902013105 | 32 | 133 | 0.0 | 3.2 | 0.00 | 0.00 | 0.00 | 60 | 1012.3 |
| 20260902012308 | 32 | 133 | 1.6 | 4.8 | 0.00 | 0.00 | 0.00 | 59 | 1012.5 |
| 20260902011506 | 32 | 133 | 0.0 | 4.8 | 0.00 | 0.00 | 0.00 | 58 | 1012.2 |
| 20260902011403 | 32 | 133 | 0.0 | 4.8 | 0.00 | 0.00 | 0.00 | 58 | 1012.5 |
| 20260902010503 | 33 | 0 | 0.0 | 0.0 | 0.00 | 0.00 | 0.00 | 57 | 1012.5 |
| 20260902010105 | 33 | 133 | 0.0 | 0.0 | 0.00 | 0.00 | 0.00 | 56 | 1012.1 |
| 20260902005603 | 33 | 0 | 0.0 | 0.0 | 0.00 | 0.00 | 0.00 | 55 | 1012.4 |
| 20260902004703 | 33 | 0 | 0.0 | 0.0 | 0.00 | 0.00 | 0.00 | 55 | 1012.3 |
| 20260902004506 | 33 | 133 | 0.0 | 0.0 | 0.00 | 0.00 | 0.00 | 55 | 1011.9 |
| 20260902003803 | 34 | 133 | 0.0 | 1.6 | 0.00 | 0.00 | 0.00 | 53 | 1012.2 |
| 20260902003008 | 34 | 133 | 0.0 | 3.2 | 0.00 | 0.00 | 0.00 | 52 | 1011.9 |
| 20260902002903 | 34 | 133 | 1.6 | 3.2 | 0.00 | 0.00 | 0.00 | 52 | 1012.2 |
| 20260902002003 | 35 | 134 | 1.6 | 3.2 | 0.00 | 0.00 | 0.00 | 51 | 1012.3 |
| 20260902001508 | 34 | 135 | 1.6 | 4.8 | 0.00 | 0.00 | 0.00 | 51 | 1012.0 |
| 20260902001103 | 35 | 142 | 3.2 | 6.4 | 0.00 | 0.00 | 0.00 | 50 | 1012.3 |
| 20260902000011 | 35 | 153 | 1.6 | 8.0 | 0.00 | 0.00 | 0.00 | 50 | 1012.0 |
| 20260901235307 | 35 | 138 | 4.8 | 8.0 | 0.00 | 0.00 | 0.00 | 49 | 1012.4 |
| 20260901234503 | 35 | 121 | 3.2 | 11.3 | 0.00 | 0.00 | 0.00 | 49 | 1012.1 |
| 20260901234403 | 35 | 145 | 6.4 | 11.3 | 0.00 | 0.00 | 0.00 | 49 | 1012.4 |
| 20260901233503 | 35 | 161 | 6.4 | 14.5 | 0.00 | 0.00 | 0.00 | 48 | 1012.5 |
| 20260901233111 | 35 | 149 | 3.2 | 14.5 | 0.00 | 0.00 | 0.00 | 48 | 1012.2 |
| 20260901232603 | 36 | 138 | 4.8 | 11.3 | 0.00 | 0.00 | 0.00 | 47 | 1012.6 |
| 20260901231703 | 36 | 138 | 6.4 | 16.1 | 0.00 | 0.00 | 0.00 | 46 | 1012.6 |
| 20260901231609 | 36 | 114 | 6.4 | 16.1 | 0.00 | 0.00 | 0.00 | 47 | 1012.3 |
| 20260901230803 | 36 | 115 | 4.8 | 12.9 | 0.00 | 0.00 | 0.00 | 46 | 1012.6 |
| 20260901230012 | 36 | 108 | 1.6 | 11.3 | 0.00 | 0.00 | 0.00 | 46 | 1012.3 |
| 20260901225903 | 36 | 112 | 6.4 | 12.9 | 0.00 | 0.00 | 0.00 | 46 | 1012.7 |
| 20260901225003 | 36 | 155 | 8.0 | 17.7 | 0.00 | 0.00 | 0.00 | 46 | 1012.7 |
| 20260901224504 | 36 | 127 | 4.8 | 17.7 | 0.00 | 0.00 | 0.00 | 47 | 1012.5 |
| 20260901224103 | 37 | 169 | 9.7 | 17.7 | 0.00 | 0.00 | 0.00 | 46 | 1012.7 |
| 20260901223008 | 36 | 161 | 11.3 | 20.9 | 0.00 | 0.00 | 0.00 | 46 | 1012.4 |
| 20260901222306 | 37 | 157 | 11.3 | 19.3 | 0.00 | 0.00 | 0.00 | 45 | 1012.9 |
| 20260901221505 | 37 | 159 | 11.3 | 17.7 | 0.00 | 0.00 | 0.00 | 45 | 1012.6 |
| 20260901221403 | 37 | 151 | 9.7 | 17.7 | 0.00 | 0.00 | 0.00 | 45 | 1012.9 |
| 20260901220503 | 37 | 154 | 9.7 | 14.5 | 0.00 | 0.00 | 0.00 | 45 | 1012.8 |
| 20260901220134 | 37 | 171 | 9.7 | 16.1 | 0.00 | 0.00 | 0.00 | 46 | 1012.6 |
| 20260901214703 | 37 | 158 | 9.7 | 17.7 | 0.00 | 0.00 | 0.00 | 45 | 1012.9 |
| 20260901214503 | 37 | 137 | 8.0 | 17.7 | 0.00 | 0.00 | 0.00 | 44 | 1012.6 |
| 20260901213802 | 37 | 156 | 11.3 | 17.7 | 0.00 | 0.00 | 0.00 | 45 | 1013.0 |
| 20260901213120 | 37 | 132 | 12.9 | 19.3 | 0.00 | 0.00 | 0.00 | 44 | 1012.7 |
| 20260901212903 | 37 | 153 | 11.3 | 19.3 | 0.00 | 0.00 | 0.00 | 44 | 1013.0 |
| 20260901212002 | 37 | 143 | 9.7 | 20.9 | 0.00 | 0.00 | 0.00 | 45 | 1013.1 |
| 20260901211503 | 37 | 153 | 6.4 | 17.7 | 0.00 | 0.00 | 0.00 | 46 | 1012.8 |
| 20260901211103 | 37 | 147 | 9.7 | 17.7 | 0.00 | 0.00 | 0.00 | 44 | 1013.2 |
| 20260901210203 | 37 | 157 | 12.9 | 24.1 | 0.00 | 0.00 | 0.00 | 45 | 1013.2 |
| 20260901210017 | 37 | 148 | 12.9 | 25.7 | 0.00 | 0.00 | 0.00 | 45 | 1012.9 |
| 20260901205306 | 38 | 162 | 12.9 | 24.1 | 0.00 | 0.00 | 0.00 | 45 | 1013.2 |
| 20260901204604 | 38 | 165 | 14.5 | 24.1 | 0.00 | 0.00 | 0.00 | 45 | 1012.9 |
| 20260901204403 | 38 | 164 | 11.3 | 24.1 | 0.00 | 0.00 | 0.00 | 45 | 1013.2 |
| 20260901203503 | 37 | 138 | 8.0 | 17.7 | 0.00 | 0.00 | 0.00 | 46 | 1013.4 |
| 20260901203110 | 37 | 165 | 6.4 | 12.9 | 0.00 | 0.00 | 0.00 | 46 | 1013.1 |
| 20260901202603 | 37 | 127 | 8.0 | 22.5 | 0.00 | 0.00 | 0.00 | 45 | 1013.5 |
| 20260901201703 | 38 | 154 | 4.8 | 16.1 | 0.00 | 0.00 | 0.00 | 44 | 1013.6 |
| 20260901201505 | 37 | 95 | 4.8 | 11.3 | 0.00 | 0.00 | 0.00 | 45 | 1013.2 |
| 20260901200803 | 38 | 140 | 4.8 | 12.9 | 0.00 | 0.00 | 0.00 | 44 | 1013.7 |
| 20260901200005 | 37 | 106 | 1.6 | 8.0 | 0.00 | 0.00 | 0.00 | 45 | 1013.5 |
| 20260901195903 | 37 | 84 | 4.8 | 11.3 | 0.00 | 0.00 | 0.00 | 45 | 1013.9 |
| 20260901195002 | 38 | 116 | 4.8 | 14.5 | 0.00 | 0.00 | 0.00 | 44 | 1014.0 |
| 20260901194603 | 37 | 130 | 1.6 | 9.7 | 0.00 | 0.00 | 0.00 | 46 | 1013.7 |
| 20260901194103 | 37 | 181 | 4.8 | 11.3 | 0.00 | 0.00 | 0.00 | 46 | 1014.1 |
| 20260901193202 | 37 | 163 | 6.4 | 20.9 | 0.00 | 0.00 | 0.00 | 46 | 1014.3 |
| 20260901193004 | 37 | 299 | 4.8 | 20.9 | 0.00 | 0.00 | 0.00 | 45 | 1014.0 |
| 20260901192306 | 38 | 151 | 8.0 | 16.1 | 0.00 | 0.00 | 0.00 | 44 | 1014.3 |